When you browse on this site, cookies collect data to enhance your experience and personalize the content and advertising you see.
Visit our Privacy Policy to learn more. By continuing to use the site, you agree to this use of cookies and data.
  • In Sweden
  • List of Countries
  • For 7 days
  • Water Temperature
  • Satellite Maps
  • Weather Map
  • Weather Widgets
  • user-avatar
    Login

    Hourly Weather Chipping Sodbury

    Today, 26 June, Wednesday

    Time Temperature Precipitation Wind Pressure Humidity
    00:00 +16°C° 0 mm 3 mps 758 mmHg 95%
    01:00 +15°C° 0 mm 4 mps 758 mmHg 95%
    02:00 +15°C° 0 mm 4 mps 759 mmHg 94%
    03:00 +15°C° 0 mm 4 mps 759 mmHg 94%
    04:00 +15°C° 0 mm 4 mps 759 mmHg 94%
    05:00 +15°C° 0 mm 4 mps 759 mmHg 93%
    06:00 +15°C° 0 mm 5 mps 760 mmHg 93%
    07:00 +15°C° 0 mm 5 mps 760 mmHg 92%
    08:00 +16°C° 0 mm 5 mps 760 mmHg 91%
    09:00 +16°C° 0 mm 5 mps 761 mmHg 89%
    10:00 +16°C° 0 mm 5 mps 761 mmHg 88%
    11:00 +17°C° 0 mm 6 mps 761 mmHg 87%
    12:00 +17°C° 0 mm 6 mps 762 mmHg 86%
    13:00 +17°C° 0 mm 6 mps 761 mmHg 85%
    14:00 +18°C° 0 mm 7 mps 761 mmHg 84%
    15:00 +18°C° 0 mm 7 mps 761 mmHg 83%
    16:00 +18°C° 0 mm 7 mps 761 mmHg 84%
    17:00 +18°C° 0 mm 7 mps 761 mmHg 85%
    18:00 +17°C° 0 mm 7 mps 761 mmHg 86%
    19:00 +16°C° 0 mm 6 mps 761 mmHg 86%
    20:00 +15°C° 0 mm 6 mps 761 mmHg 87%
    21:00 +14°C° 0 mm 6 mps 762 mmHg 88%
    22:00 +13°C° 0 mm 6 mps 762 mmHg 88%
    23:00 +11°C° 0 mm 6 mps 762 mmHg 88%

    Tomorrow, 27 June, Thursday

    Time Temperature Precipitation Wind Pressure Humidity
    00:00 +10°C° 0 mm 6 mps 762 mmHg 88%
    01:00 +10°C° 0 mm 6 mps 762 mmHg 88%
    02:00 +10°C° 0 mm 5 mps 762 mmHg 87%
    03:00 +9°C° 0 mm 5 mps 762 mmHg 86%
    04:00 +10°C° 0 mm 5 mps 762 mmHg 85%
    05:00 +10°C° 0 mm 6 mps 762 mmHg 84%
    06:00 +10°C° 0 mm 6 mps 762 mmHg 83%
    07:00 +13°C° 0 mm 6 mps 762 mmHg 79%
    08:00 +14°C° 0 mm 7 mps 762 mmHg 76%
    09:00 +16°C° 0 mm 7 mps 762 mmHg 72%
    10:00 +17°C° 0 mm 7 mps 762 mmHg 71%
    11:00 +18°C° 0 mm 7 mps 762 mmHg 70%
    12:00 +20°C° 0 mm 7 mps 762 mmHg 69%
    13:00 +21°C° 0 mm 7 mps 762 mmHg 70%
    14:00 +21°C° 0 mm 7 mps 761 mmHg 72%
    15:00 +22°C° 0 mm 7 mps 761 mmHg 74%
    16:00 +22°C° 0 mm 7 mps 761 mmHg 76%
    17:00 +21°C° 0 mm 7 mps 760 mmHg 77%
    18:00 +20°C° 0 mm 7 mps 760 mmHg 79%
    19:00 +18°C° 0 mm 7 mps 760 mmHg 80%
    20:00 +17°C° 0 mm 7 mps 760 mmHg 81%
    21:00 +16°C° 0 mm 7 mps 760 mmHg 82%
    22:00 +15°C° 0 mm 6 mps 760 mmHg 83%
    23:00 +14°C° 0 mm 6 mps 760 mmHg 84%

    Day after tomorrow, 28 June, Friday

    Time Temperature Precipitation Wind Pressure Humidity
    00:00 +13°C° 0 mm 6 mps 760 mmHg 85%
    01:00 +12°C° 0 mm 5 mps 759 mmHg 85%
    02:00 +12°C° 0 mm 5 mps 759 mmHg 85%
    03:00 +10°C° 0 mm 5 mps 759 mmHg 84%
    04:00 +10°C° 0 mm 5 mps 759 mmHg 85%
    05:00 +12°C° 0 mm 5 mps 758 mmHg 85%
    06:00 +11°C° 0 mm 6 mps 758 mmHg 86%
    07:00 +14°C° 0 mm 6 mps 758 mmHg 83%
    08:00 +16°C° 0 mm 6 mps 758 mmHg 80%
    09:00 +17°C° 0 mm 6 mps 758 mmHg 77%
    10:00 +20°C° 0 mm 6 mps 757 mmHg 75%
    11:00 +21°C° 0 mm 6 mps 757 mmHg 74%
    12:00 +22°C° 0 mm 7 mps 757 mmHg 72%
    13:00 +23°C° 0 mm 7 mps 757 mmHg 71%
    14:00 +23°C° 0 mm 7 mps 756 mmHg 70%
    15:00 +24°C° 0 mm 7 mps 756 mmHg 70%
    16:00 +23°C° 0 mm 6 mps 756 mmHg 72%
    17:00 +22°C° 0 mm 6 mps 755 mmHg 74%
    18:00 +21°C° 0 mm 5 mps 755 mmHg 76%
    19:00 +20°C° 0 mm 5 mps 755 mmHg 78%
    20:00 +18°C° 0 mm 4 mps 755 mmHg 81%
    21:00 +15°C° 0 mm 4 mps 755 mmHg 84%
    22:00 +16°C° 0 mm 3 mps 754 mmHg 85%
    23:00 +14°C° 0 mm 3 mps 754 mmHg 87%

    29 June, Saturday

    Time Temperature Precipitation Wind Pressure Humidity
    00:00 +14°C° 0 mm 3 mps 754 mmHg 89%
    01:00 +14°C° 0 mm 3 mps 753 mmHg 89%
    02:00 +13°C° 0 mm 3 mps 753 mmHg 90%
    03:00 +14°C° 0 mm 2 mps 753 mmHg 90%
    04:00 +15°C° 0 mm 2 mps 752 mmHg 89%
    05:00 +16°C° 0 mm 2 mps 752 mmHg 88%
    06:00 +16°C° 0 mm 2 mps 752 mmHg 87%
    07:00 +18°C° 0 mm 2 mps 752 mmHg 86%
    08:00 +19°C° 0 mm 2 mps 752 mmHg 85%
    09:00 +20°C° 0 mm 2 mps 751 mmHg 84%
    10:00 +23°C° 0 mm 2 mps 751 mmHg 83%
    11:00 +24°C° 0 mm 3 mps 751 mmHg 82%
    12:00 +25°C° 0 mm 3 mps 751 mmHg 80%
    13:00 +24°C° 0 mm 3 mps 750 mmHg 83%
    14:00 +21°C° 0 mm 4 mps 750 mmHg 86%
    15:00 +20°C° 0 mm 4 mps 750 mmHg 88%
    16:00 +20°C° 0 mm 5 mps 750 mmHg 84%
    17:00 +20°C° 0 mm 5 mps 750 mmHg 79%
    18:00 +20°C° 0 mm 6 mps 750 mmHg 75%
    19:00 +17°C° 0 mm 5 mps 750 mmHg 80%
    20:00 +15°C° 0 mm 5 mps 751 mmHg 84%
    21:00 +13°C° 0 mm 4 mps 751 mmHg 89%
    22:00 +13°C° 0 mm 4 mps 751 mmHg 91%
    23:00 +13°C° 0 mm 4 mps 751 mmHg 93%

    30 June, Sunday

    Time Temperature Precipitation Wind Pressure Humidity
    00:00 +13°C° 0 mm 4 mps 751 mmHg 96%
    01:00 +13°C° 0 mm 4 mps 751 mmHg 94%
    02:00 +13°C° 0 mm 4 mps 751 mmHg 93%
    03:00 +14°C° 0 mm 4 mps 751 mmHg 91%
    04:00 +14°C° 0 mm 4 mps 751 mmHg 91%
    05:00 +14°C° 0 mm 4 mps 752 mmHg 90%
    06:00 +14°C° 0 mm 4 mps 752 mmHg 90%
    07:00 +15°C° 0 mm 5 mps 752 mmHg 87%
    08:00 +16°C° 0 mm 5 mps 753 mmHg 84%
    09:00 +16°C° 0 mm 5 mps 753 mmHg 82%
    10:00 +16°C° 0 mm 5 mps 753 mmHg 81%
    11:00 +17°C° 0 mm 6 mps 753 mmHg 80%
    12:00 +17°C° 0 mm 6 mps 753 mmHg 79%
    13:00 +17°C° 0 mm 6 mps 753 mmHg 77%
    14:00 +19°C° 0 mm 6 mps 753 mmHg 75%
    15:00 +19°C° 0 mm 6 mps 753 mmHg 73%
    16:00 +17°C° 0 mm 6 mps 753 mmHg 74%
    17:00 +17°C° 0 mm 6 mps 753 mmHg 76%
    18:00 +16°C° 0 mm 6 mps 753 mmHg 77%
    19:00 +15°C° 0 mm 5 mps 753 mmHg 80%
    20:00 +14°C° 0 mm 4 mps 753 mmHg 83%
    21:00 +12°C° 0 mm 4 mps 754 mmHg 86%
    22:00 +12°C° 0 mm 4 mps 754 mmHg 88%
    23:00 +11°C° 0 mm 3 mps 754 mmHg 89%

    1 July, Monday

    Time Temperature Precipitation Wind Pressure Humidity
    00:00 +11°C° 0 mm 3 mps 754 mmHg 91%
    01:00 +11°C° 0 mm 3 mps 754 mmHg 91%
    02:00 +10°C° 0 mm 3 mps 754 mmHg 90%
    03:00 +10°C° 0 mm 3 mps 754 mmHg 90%
    04:00 +10°C° 0 mm 3 mps 754 mmHg 88%
    05:00 +11°C° 0 mm 3 mps 754 mmHg 85%
    06:00 +11°C° 0 mm 4 mps 754 mmHg 82%
    07:00 +12°C° 0 mm 4 mps 755 mmHg 78%
    08:00 +13°C° 0 mm 5 mps 755 mmHg 74%
    09:00 +14°C° 0 mm 6 mps 756 mmHg 71%
    10:00 +15°C° 0 mm 6 mps 756 mmHg 69%
    11:00 +15°C° 0 mm 5 mps 756 mmHg 68%
    12:00 +16°C° 0 mm 5 mps 756 mmHg 67%
    13:00 +16°C° 0 mm 5 mps 756 mmHg 67%
    14:00 +16°C° 0 mm 5 mps 756 mmHg 67%
    15:00 +17°C° 0 mm 5 mps 756 mmHg 68%
    16:00 +17°C° 0 mm 5 mps 757 mmHg 70%
    17:00 +16°C° 0 mm 5 mps 757 mmHg 73%
    18:00 +17°C° 0 mm 4 mps 757 mmHg 75%
    19:00 +15°C° 0 mm 4 mps 757 mmHg 79%
    20:00 +13°C° 0 mm 3 mps 758 mmHg 82%
    21:00 +12°C° 0 mm 3 mps 758 mmHg 86%
    22:00 +12°C° 0 mm 2 mps 758 mmHg 87%
    23:00 +12°C° 0 mm 2 mps 759 mmHg 89%
    Show more